Voltar ao catálogo

SL-19 DEB

AtivoUNKNOWN
NORAD 23479·DEBRIS·🇷🇺 Russia

Lançado Dec 26, 1994 de Baikonur Cosmodrome

Loading…

Próximas Passagens (próximas 24 horas)

TLE

AtualizadoSource: Space-Track

Época: Sep 14, 2026, 11:31 UTC

1 23479U 94085C   26257.48047839  .00000168  00000-0  49918-2 0  9994
2 23479  65.0433  77.4276 0090699 323.5864  63.6362 11.45285163323443

Acompanhe SL-19 DEB em tempo real com AllMySat

Download on the App Store